Regional Weather Roundup
Issued by NWS

Home | Current Version | Previous Version | Graphics & Text | Print | Product List | Glossary On
Versions: 1 2 3 4 5 6 7 8 9 10 11 12 13 14 15 16 17 18 19 20 21 22 23 24 25 26 27 28 29 30 31 32 33 34 35 36 37 38 39 40 41 42 43 44 45 46 47 48 49 50
000
ASUS43 KDMX 220401
RWRIA

WEATHER ROUNDUP FOR IOWA
NATIONAL WEATHER SERVICE DES MOINES IA
1000 PM CST SUN JAN 21 2018

NOTE: "FAIR" INDICATES FEW OR NO CLOUDS BELOW 12,000 FEET WITH NO
SIGNIFICANT WEATHER AND/OR OBSTRUCTIONS TO VISIBILITY.

* - THESE STATIONS ARE NOT NWS STATIONS...THUS NOT UNDER NWS
QUALITY CONTROL.  THEY ALSO DO NOT REPORT WEATHER SUCH
AS PRECIPITATION OR FOG.

IAZ001>003-012>014-020>022-031>034-043>046-220500-
   NORTHWEST IOWA

CITY           SKY/WX    TMP DP  RH WIND       PRES   REMARKS
CARROLL *      MIX PCPN  36  36 100 NE16G24   29.70F VSB 1   WCI  26
CHEROKEE *     CLOUDY    35  32  88 NE17G29   29.75F WCI  25
DENISON *      CLOUDY    36  36 100 NE20G29   29.70F FOG     WCI  25
LE MARS *      FLURRIES  34  32  93 N26G32    29.72F WCI  21
ORANGE CITY *  LGT SNOW  34  32  93 NE14G23   29.78F WCI  24
SHELDON *      CLOUDY    34  30  86 NE23      29.79F WCI  22
SIOUX CITY     CLOUDY    36  32  85 NE22G28   29.72F WCI  25
SPENCER        CLOUDY    36  29  75 NE20      29.82F WCI  25
STORM LAKE *   CLOUDY    34  34 100 NE30G36   29.72F FOG     WCI  20
$$

IAZ055>058-069>071-079>083-090>094-220500-
   SOUTHWEST IOWA

CITY           SKY/WX    TMP DP  RH WIND       PRES   REMARKS
ATLANTIC *     LGT RAIN  37  37 100 NE17      29.65S VSB 1/2 WCI  28
AUDUBON *      SNOW      36  34  93 NE18G24   29.67F VSB 1/2 WCI  25
CLARINDA *     CLOUDY    43  43 100 NE8         N/A  FOG
COUNCIL BLFS * LGT RAIN  37  37 100 NE13      29.64F WCI  29
CRESTON *      LGT RAIN  39  39 100 NE12G17   29.64S WCI  32
HARLAN  *      MIX PCPN  37  37 100 N9G16     29.71R WCI  31
LAMONI         HVY RAIN  49  48  97 CALM      29.61S FOG
RED OAK *      LGT RAIN  39  39 100 NE14G22   29.63F VSB 1   WCI  31
SHENANDOAH *   LGT RAIN  41  41 100 NE10G16   29.63F
$$

IAZ047>049-059>061-072>074-084-220500-
   CENTRAL IOWA

CITY           SKY/WX    TMP DP  RH WIND       PRES   REMARKS
AMES           FOG       37  37 100 NE15G22   29.70F VSB 3/4 WCI  28
ANKENY *       FOG       37  37 100 NE12G18   29.69F VSB<1/4 WCI  30
BOONE *        FOG       37  36  93 NE16G24   29.68F VSB 1/4 WCI  28
CHARITON *     RAIN      41  41 100 NE7       29.64S
DES MOINES     LGT RAIN  39  39 100 NE13      29.67F VSB 1/8 WCI  31
GRINNELL*      LGT RAIN  38  37  98 NE15      29.70F VSB 1/4 WCI  29
KNOXVILLE *    MIX PCPN  41  41 100 NE9       29.64F VSB<1/4
MARSHALLTOWN   FOG       37  37 100 NE16      29.72F VSB 1/2 WCI  28
NEWTON *       FOG       37  37 100 NE13      29.68F VSB<1/4 WCI  29
PELLA *        FOG       40  39  99 NE7       29.68F VSB 3/4 WCI  35
$$

IAZ004>006-015-016-023>025-035-036-220500-
   NORTH CENTRAL IOWA

CITY           SKY/WX    TMP DP  RH WIND       PRES   REMARKS
ALGONA *       LGT SNOW  36 N/A N/A NE14      29.81F WCI  27
CLARION *      CLOUDY    36  36 100 NE22G28   29.75F FOG     WCI  24
ESTHERVILLE    CLOUDY    32  30  92 N20       29.83F WCI  20
FORT DODGE *   CLOUDY    35  34  96 NE15      29.74F FOG     WCI  25
MASON CITY     CLOUDY    35  32  88 NE13      29.83F FOG     WCI  26
FOREST CITY *  CLOUDY    36  32  87 NE9G16    29.82F WCI  29
WEBSTER CITY * CLOUDY    37  37 100 NE14      29.72F FOG     WCI  29
IOWA FALLS *   FOG       37  36  98 NE13      29.75F VSB 1   WCI  29
$$

IAZ007>011-017>019-026>030-037>042-050>054-066-220500-
   NORTHEAST IOWA

CITY           SKY/WX    TMP DP  RH WIND       PRES   REMARKS
CEDAR RAPIDS   LGT RAIN  41  40  96 NE13      29.74F VSB 3/4
CHARLES CITY * CLOUDY    37  37 100 NE14      29.82S FOG     WCI  29
CLINTON *      LGT RAIN  39  39 100 NE10      29.78F VSB 1/4 WCI  32
DECORAH *      CLOUDY    36  36 100 E9        29.83S FOG     WCI  29
DUBUQUE        FOG       36  35  96 NE8       29.80F VSB 1/4 WCI  30
MONTICELLO *   FOG       37  37 100 NE9       29.77F VSB 3/4 WCI  31
OELWEIN *      CLOUDY    37  37 100 NE15      29.78F FOG     WCI  28
WATERLOO       CLOUDY    37  36  96 E13       29.77F FOG     WCI  29
$$

IAZ064-065-067-068-078-220500-
   EAST CENTRAL IOWA

CITY           SKY/WX    TMP DP  RH WIND       PRES   REMARKS
DAVENPORT      FOG       42  40  92 E9        29.78F VSB 1/4
IOWA CITY      CLOUDY    42  39  89 NE9       29.75F FOG
MT. PLEASANT * CLOUDY    46  46 100 SE7       29.70F FOG
MUSCATINE *    CLOUDY    45  45 100 NE8       29.74F FOG
QUAD CITIES    FOG       45  44  97 E6        29.76F VSB 3/4
$$

IAZ062-063-075>077-085>089-095>099-220500-
   SOUTHEAST IOWA

CITY           SKY/WX    TMP DP  RH WIND       PRES   REMARKS
BURLINGTON     CLOUDY    53  50  89 SE12      29.71F
FAIRFIELD *    CLOUDY    46  46 100 E9        29.68F FOG
FORT MADISON * CLOUDY    54  52  94 SE6       29.72S
KEOKUK *       CLOUDY    52  50  93 SE8       29.69F
OSKALOOSA *    CLOUDY    41  40  97 NE12G17   29.67F FOG
OTTUMWA        LGT RAIN  44  42  93 E14       29.66F FOG
WASHINGTON *   CLOUDY    43  43 100 NE12      29.71F FOG
$$

ABBREVIATIONS USED IN REMARKS
   TC - TEMPERATURES IN CELSIUS
  WCI - WIND CHILL INDEX
   HX - HEAT INDEX
  VSB - VISIBILITY
$$





USA.gov is the U.S. government's official web portal to all federal, state and local government web resources and services.